Tracking 25707 objects as of 30-Jun-2022
HD Live streaming from Space Station
objects crossing your sky now

ZDPS 2B

Track ZDPS 2B now!
10-day predictions
ZDPS 2B is classified as:


NORAD ID: 40902
Int'l Code: 2015-049D
Perigee: 492.6 km
Apogee: 506.3 km
Inclination: 97.5 °
Period: 94.5 minutes
Semi major axis: 6870 km
RCS: Unknown
Launch date: September 19, 2015
Source: People's Republic of China (PRC)
Launch site: Taiyaun Space Center, China (TSC)
aabbcc
Your satellite tracking list
Your tracking list is empty




NASA's NSSDC Master Catalog

Two Line Element Set (TLE):
1 40902U 15049D   22180.55816633  .00008839  00000-0  36212-3 0  9999
2 40902  97.4666 186.9812 0009973 308.0956 168.9334 15.24479098375276
Source of the keplerian elements: AFSPC